Regional Weather Roundup
Issued by NWS

Home | Current Version | Previous Version | Graphics & Text | Print | Product List | Glossary On
Versions: 1 2 3 4 5 6 7 8 9 10 11 12 13 14 15 16 17 18 19 20 21 22 23 24 25 26 27 28 29 30 31 32 33 34 35 36 37 38 39 40 41 42 43 44 45 46 47 48 49 50
211
ASUS43 KBIS 221610
RWRND

NORTH DAKOTA REGIONAL WEATHER ROUNDUP
NATIONAL WEATHER SERVICE BISMARCK ND
1000 AM CST WED FEB 22 2017

NOTE: "FAIR" INDICATES FEW OR NO CLOUDS BELOW 12,000 FEET WITH NO
SIGNIFICANT WEATHER AND/OR OBSTRUCTIONS TO VISIBILITY.


NDZ001>003-009>011-017-221700-
NORTHWEST NORTH DAKOTA

CITY           SKY/WX    TMP DP  RH WIND       PRES   REMARKS
WILLISTON      CLOUDY    30  26  85 N15       29.87R WCI  19
MINOT          CLOUDY    32  28  85 N15       29.81R
MINOT AFB      CLOUDY    31  27  86 N12       29.81R
$$

NDZ018>021-031>035-040>046-221700-
SOUTHWEST NORTH DAKOTA

CITY           SKY/WX    TMP DP  RH WIND       PRES   REMARKS
BISMARCK       LGT SNOW  34  33  96 N6        29.75R FOG
DICKINSON      LGT SNOW  29  27  92 N12       29.76R VSB 3/4 WCI  19
GARRISON         N/A     31  29  92 N14G22    29.77R
HETTINGER ARPT LGT SNOW  32  31  96 N7        29.76R VSB 1
$$

NDZ004>008-012>016-024-026-027-054-221700-
NORTHEAST NORTH DAKOTA

CITY           SKY/WX    TMP DP  RH WIND       PRES   REMARKS
GRAND FORKS    DRIZZLE   34  29  82 N20       29.75R
GRND FRKS AFB  LGT RAIN  33  33 100 NE17G23   29.75R FOG
DEVILS LAKE    CLOUDY    32  30  92 NE20      29.77R
$$

NDZ022-023-025-028>030-036>039-047>053-221700-
SOUTHEAST NORTH DAKOTA

CITY           SKY/WX    TMP DP  RH WIND       PRES   REMARKS
FARGO          FOG       33  33 100 N9        29.69R VSB 3/4
JAMESTOWN      LGT SNOW  33  32  96 N14       29.69R FOG
$$





USA.gov is the U.S. government's official web portal to all federal, state and local government web resources and services.